This is the latest recevied weather packets stored in our database for station/object YO6IGJ-11. If no packets are shown the sender has not sent any weather packets the latest 10 day(s).
| Time | Temp. | Humidity | Pressure | Rain* | Wind** | Luminosity | Snow |
|---|---|---|---|---|---|---|---|
| 1777499748 | 13.89° C | 35% | 1025.4 hPa | - | - | - | - |
| 1777494347 | 14.44° C | 35% | 1025 hPa | - | - | - | - |
| 1777492551 | 15° C | 34% | 1024.6 hPa | - | - | - | - |
| 1777490750 | 15° C | 33% | 1024.5 hPa | - | - | - | - |
| 1777487150 | 15° C | 32% | 1023.2 hPa | - | - | - | - |
| 1777483549 | 15.56° C | 31% | 1022.1 hPa | - | - | - | - |
| 1777481749 | 15.56° C | 31% | 1021.3 hPa | - | - | - | - |
| 1777478148 | 16.67° C | 30% | 1021.2 hPa | - | - | - | - |
| 1777476348 | 16.67° C | 31% | 1020.8 hPa | - | - | - | - |
| 1777470949 | 16.67° C | 29% | 1020.4 hPa | - | - | - | - |
| 1777469148 | 16.67° C | 29% | 1020.4 hPa | - | - | - | - |
| 1777465548 | 16.11° C | 28% | 1020.9 hPa | - | - | - | - |
| 1777461947 | 16.11° C | 29% | 1021.4 hPa | - | - | - | - |
| 1777460147 | 16.11° C | 29% | 1021.4 hPa | - | - | - | - |
| 1777459247 | 16.11° C | 29% | 1021.7 hPa | - | - | - | - |
| 1777458346 | 16.11° C | 29% | 1021.9 hPa | - | - | - | - |
| 1777457446 | 16.11° C | 29% | 1021.8 hPa | - | - | - | - |
| 1777455646 | 15.56° C | 29% | 1022 hPa | - | - | - | - |
| 1777454746 | 15.56° C | 28% | 1022.1 hPa | - | - | - | - |
| 1777453846 | 15.56° C | 29% | 1022.2 hPa | - | - | - | - |
| 1777452045 | 15.56° C | 28% | 1022.4 hPa | - | - | - | - |
| 1777451145 | 15.56° C | 29% | 1022.3 hPa | - | - | - | - |
| 1777450245 | 15.56° C | 29% | 1022.4 hPa | - | - | - | - |
| 1777449349 | 15.56° C | 30% | 1022.4 hPa | - | - | - | - |
| 1777448449 | 15.56° C | 29% | 1022.5 hPa | - | - | - | - |
* Rain since midnight (hover to see other rain measurements)
** Current wind speed in m/s (hover to see current wind gust speed)